Theta_e
319 318 319 319 323 323 324 330 323 324 328 321 319 322 318 317 319 316 317 317 319 318 316 321 321 318 319 321 323 326 324 329 329 320 321 325 330 334 334 336 334 338 340 340 342 341 341 341 341 340 338 335 333 334 335 337 338 338 339 339 339 339 338 337 334 333 333 335 336 336 336 336 336 335 334 334 334 334 334 330 326 326 324 322 320 318 314 307 301 300 302 309 309 309 313 320 325
319 319 321 321 322 322 325 330 327 327 328 317 315 322 319 319 319 319 321 318 319 320 321 325 327 324 324 326 326 327 325 329 325 316 325 330 332 336 336 337 334 338 340 340 342 342 342 341 340 340 338 336 334 334 336 338 338 338 339 339 339 338 338 335 332 333 334 335 335 335 336 336 335 335 334 332 333 333 334 330 325 327 324 322 321 318 315 307 301 300 305 317 319 315 315 322 328
319 320 321 323 321 323 333 329 323 327 328 319 319 326 319 317 319 321 321 318 320 321 320 321 324 322 322 327 325 324 323 330 330 324 327 330 332 336 339 339 336 338 340 340 342 342 341 341 341 340 338 337 335 335 336 338 338 337 337 338 338 337 337 333 328 330 331 333 334 335 336 336 335 334 333 332 332 332 333 328 325 327 324 322 321 317 314 306 301 300 306 321 325 324 324 327 329
320 321 320 324 323 331 352 338 328 331 326 322 323 326 324 322 321 320 317 317 320 318 317 318 323 317 319 328 322 323 328 329 329 329 330 328 331 337 338 339 338 339 341 340 341 342 342 342 342 340 338 337 337 336 336 337 338 337 336 336 336 337 337 331 324 324 325 327 330 332 335 335 335 334 333 332 331 332 330 326 326 327 323 322 320 316 311 304 301 299 306 322 327 327 328 327 328
320 321 318 323 325 330 340 329 328 330 320 323 323 323 333 330 321 319 317 316 316 315 315 319 324 317 319 327 321 325 329 324 321 326 331 329 332 335 338 340 340 341 342 340 340 342 342 343 342 340 339 338 338 337 336 336 337 339 338 337 336 336 334 329 322 321 322 322 324 329 332 333 333 333 332 331 331 331 329 326 328 326 323 322 319 314 309 302 300 299 304 320 326 326 327 327 328
321 320 318 320 318 318 323 319 321 323 319 326 324 323 333 329 322 321 316 312 314 315 315 319 325 322 326 327 323 328 327 325 325 327 330 331 334 335 338 340 340 342 341 341 340 342 343 343 343 341 340 338 338 337 337 336 336 338 338 338 336 336 333 328 324 322 324 322 324 328 330 331 332 332 331 331 330 330 328 327 328 326 324 322 319 313 308 302 300 299 302 316 325 326 326 327 328
321 320 324 324 319 320 328 324 321 322 317 318 321 323 326 326 322 318 314 313 314 314 316 321 324 324 327 322 322 326 325 328 329 330 332 333 335 335 338 339 341 341 341 341 340 342 343 343 342 342 341 339 338 337 337 336 335 336 336 337 337 336 335 332 329 326 327 325 324 325 326 328 329 330 331 331 330 330 329 328 328 326 324 323 319 313 308 303 299 300 302 312 323 326 326 326 327
320 322 327 333 330 330 334 324 321 323 316 313 316 321 323 326 320 315 314 315 314 315 320 322 320 320 320 319 324 325 322 328 330 332 333 335 336 336 337 338 341 342 341 340 340 342 343 343 343 342 342 340 339 338 338 337 336 335 334 335 336 337 336 335 333 330 329 327 325 322 322 325 327 329 331 332 331 331 329 328 329 327 325 323 320 314 308 305 301 302 304 309 317 321 322 324 325
317 319 326 333 331 332 333 320 316 318 317 316 315 318 321 321 316 313 315 315 313 315 319 319 316 317 319 322 329 323 321 329 331 332 334 336 337 336 338 338 341 342 341 340 340 340 342 343 343 342 342 341 340 339 338 337 336 336 335 334 336 337 336 336 335 333 331 329 327 324 322 323 326 329 331 332 332 332 330 329 329 328 325 323 321 316 309 305 303 305 308 312 315 317 320 323 323
317 319 325 332 330 326 323 317 319 319 317 319 316 317 319 316 314 313 315 314 313 316 317 316 317 319 320 326 328 319 320 328 331 333 334 336 336 337 338 338 341 341 341 340 339 340 342 342 342 343 342 342 341 339 339 337 337 336 335 335 335 336 336 336 336 334 333 332 329 326 324 323 327 330 331 332 332 333 331 330 330 328 326 323 321 319 312 305 302 303 307 311 313 314 318 321 321
323 326 333 340 332 321 320 319 322 323 318 319 318 318 318 314 314 314 315 314 313 316 316 315 322 326 321 324 325 315 315 325 331 332 334 336 335 336 338 339 340 340 340 341 340 340 342 343 343 343 342 343 341 341 339 338 337 336 336 335 335 336 336 336 335 335 334 334 331 330 328 326 329 331 332 332 333 334 332 331 330 329 326 323 322 319 315 309 303 301 301 304 307 308 311 314 315
323 330 344 345 330 322 326 323 319 326 324 319 317 316 315 313 313 314 316 316 314 316 315 313 318 323 321 323 320 311 312 323 330 330 334 337 336 335 337 340 340 339 340 339 340 340 341 343 342 342 342 342 341 341 340 339 338 337 336 335 335 336 336 336 335 335 335 334 332 332 333 330 330 332 332 332 333 333 333 332 331 329 326 324 322 321 318 314 309 305 302 301 302 304 305 308 310
330 335 348 330 320 324 325 322 318 324 325 321 319 313 311 313 314 317 318 317 315 316 313 310 312 317 321 322 316 309 311 321 328 330 332 335 338 336 337 340 340 338 338 337 339 340 339 340 341 342 342 342 342 342 340 340 339 337 336 335 336 336 336 336 336 335 335 335 334 333 334 332 332 332 332 332 333 333 333 332 331 330 327 324 323 322 320 318 316 312 308 305 302 301 303 305 305
331 337 345 325 315 323 322 320 319 318 319 323 321 314 312 313 315 317 318 317 315 316 312 307 311 317 319 317 317 315 311 319 328 329 329 333 338 337 338 340 340 337 335 337 340 341 338 337 338 340 341 341 340 341 341 341 340 338 337 336 335 335 336 336 336 335 335 335 335 334 333 333 333 333 332 332 333 333 332 332 332 330 328 326 323 323 322 321 320 318 316 313 308 304 302 303 303
323 330 338 330 317 319 320 318 320 319 321 322 316 314 315 312 313 315 316 318 314 312 309 307 309 314 317 316 321 319 311 320 329 329 328 331 335 338 338 338 340 338 336 338 340 340 339 339 339 340 340 339 339 340 341 341 340 339 338 337 335 335 335 336 336 335 335 335 335 335 333 333 333 333 333 333 332 332 332 332 332 330 329 326 324 323 323 323 322 321 320 318 316 312 308 307 307
322 332 338 332 320 317 317 317 321 319 321 322 315 313 315 312 311 314 312 313 313 311 312 313 310 311 315 316 316 311 308 322 329 328 327 329 333 336 337 337 338 338 337 338 339 339 339 340 339 340 340 339 339 339 340 341 340 339 339 338 336 336 335 335 336 335 335 335 335 334 334 333 332 332 333 333 332 332 332 332 332 331 330 327 325 324 324 324 323 322 322 320 319 317 315 314 313
328 339 339 329 322 320 318 318 319 321 324 322 315 314 317 314 311 312 309 311 316 314 316 315 308 308 312 312 310 307 311 323 328 327 326 328 332 333 334 335 336 338 338 336 337 338 339 338 336 337 336 337 337 336 339 340 339 339 339 339 338 337 336 335 335 335 335 336 335 334 334 333 332 332 332 333 333 333 332 332 332 331 330 328 325 325 325 325 324 324 322 321 320 319 318 316 314
341 341 331 323 322 323 323 322 318 321 323 319 316 316 318 317 314 312 310 315 318 314 316 315 311 309 309 310 309 310 315 323 326 325 325 325 327 329 331 332 333 336 336 335 335 336 337 336 334 334 334 333 335 337 339 340 339 338 338 339 338 338 337 336 335 335 335 336 335 334 333 333 333 331 331 333 333 333 332 332 332 331 330 329 327 325 325 325 325 324 323 322 321 320 319 317 315
341 338 330 327 326 322 321 323 318 316 318 318 317 315 316 317 315 313 312 317 317 315 317 316 317 315 310 311 311 312 317 323 324 322 322 321 323 325 327 329 330 332 332 333 333 333 334 334 332 334 335 334 335 339 339 339 338 338 339 338 338 338 338 337 336 336 336 335 334 333 332 333 333 332 331 332 333 333 332 332 332 331 330 329 327 326 325 325 325 324 324 323 321 321 320 318 317
327 334 334 329 329 323 317 320 320 317 316 319 317 314 315 315 314 313 314 319 316 319 321 317 320 322 316 313 311 313 318 321 320 321 320 318 319 321 323 325 327 329 329 330 330 330 330 331 330 332 335 334 335 338 338 338 337 338 339 338 336 337 337 337 336 335 336 336 334 332 332 333 333 333 332 332 333 334 332 331 331 331 330 329 328 326 326 325 325 324 324 323 322 321 321 319 318
319 327 330 324 323 321 317 319 320 318 315 317 318 315 315 313 313 314 315 318 317 321 322 318 322 325 321 315 310 312 317 319 317 317 317 316 316 317 319 320 321 324 325 326 327 327 327 328 329 329 332 333 334 336 337 337 336 337 338 337 335 336 336 337 336 336 336 335 334 333 332 332 332 332 332 332 332 333 333 332 332 331 330 330 328 327 326 326 325 324 323 323 322 322 321 319 318
318 317 319 319 318 316 318 320 317 316 313 316 318 315 315 313 313 317 317 317 320 321 318 318 319 319 320 315 310 310 312 315 315 314 314 314 314 315 316 316 317 318 319 320 321 322 323 325 328 329 329 330 331 332 335 336 335 336 337 337 335 334 336 336 336 336 335 335 335 334 333 332 332 331 332 333 332 332 332 332 332 331 330 329 328 327 326 326 326 324 324 323 322 323 322 319 319
320 316 315 318 318 315 318 318 316 315 315 318 318 315 314 314 315 316 316 317 319 315 312 315 312 309 312 311 309 313 313 311 312 313 313 314 314 315 315 314 315 315 315 316 316 317 317 319 323 327 328 327 330 331 332 333 335 335 335 337 335 332 334 336 336 334 334 335 335 334 334 334 332 331 332 332 332 331 332 332 331 331 330 329 328 328 327 327 326 325 324 323 322 322 321 319 319
325 320 316 317 316 316 316 317 317 316 317 318 316 313 314 318 316 312 314 317 317 311 306 306 304 304 308 312 312 312 311 309 311 314 314 314 315 315 315 314 314 314 314 314 313 313 313 314 316 322 326 326 329 332 330 331 334 335 334 334 333 332 334 335 335 334 335 335 333 333 333 334 333 332 332 332 331 331 331 331 331 331 330 328 328 328 327 327 326 324 323 322 322 321 320 320 319
325 319 318 317 316 319 317 316 318 316 317 315 314 315 316 318 314 311 318 320 317 311 307 305 306 307 311 317 317 309 307 309 310 312 312 313 314 314 314 313 313 313 313 312 312 312 312 314 313 316 323 325 327 330 330 332 334 335 334 332 332 334 334 335 335 334 334 333 332 332 331 332 333 332 331 331 331 331 330 330 330 330 329 328 328 328 327 327 325 323 322 322 322 320 320 320 319
319 318 320 318 317 321 318 316 318 317 316 314 314 318 316 313 312 314 320 319 313 311 313 312 313 317 316 318 316 307 306 307 308 310 310 311 312 312 312 312 312 312 312 311 311 311 312 314 314 315 319 325 327 329 331 333 334 334 332 331 333 334 334 333 333 333 333 333 332 332 331 331 333 332 332 331 331 331 329 329 329 329 329 329 329 328 327 326 324 323 323 322 321 321 321 320 319
317 320 320 318 320 322 317 316 318 317 316 315 314 318 317 313 313 316 319 313 310 315 318 313 315 321 317 316 313 307 306 307 308 310 309 310 310 311 312 312 312 311 311 310 309 310 312 314 316 315 318 324 327 329 331 333 334 333 330 331 333 333 333 332 330 331 332 332 332 331 332 333 333 332 331 331 330 330 329 328 328 328 329 329 329 328 326 325 324 323 323 322 321 321 320 320 318
316 320 318 319 324 322 317 316 317 315 315 316 315 315 316 313 314 318 316 308 308 319 322 313 316 319 314 315 314 307 305 307 309 309 308 309 310 311 311 311 312 311 310 310 309 311 314 317 318 317 319 323 327 329 331 332 333 331 330 330 331 331 332 332 331 330 331 331 330 330 331 332 331 331 331 330 329 329 328 328 327 327 328 327 327 326 324 324 323 322 322 321 320 319 319 318 316
316 319 318 323 329 323 316 316 315 314 315 316 315 315 317 315 315 317 313 307 307 316 322 316 315 316 314 314 313 308 304 307 308 307 309 309 310 311 311 311 311 310 309 310 312 313 316 319 319 319 321 324 327 330 331 331 331 330 330 329 328 328 329 331 331 331 331 330 328 330 331 330 331 330 329 329 328 327 327 327 327 326 326 325 325 324 324 323 322 322 320 320 319 319 318 316 314
317 317 318 324 328 324 315 313 314 313 315 316 314 318 326 324 318 316 310 308 310 315 319 316 314 313 314 312 312 310 305 304 306 306 308 309 310 310 310 311 310 309 309 312 314 314 317 319 320 321 323 325 327 329 330 330 330 329 329 329 327 327 328 330 331 330 330 329 329 329 329 329 330 329 329 328 327 326 325 326 325 325 324 324 324 323 323 322 322 321 319 319 318 318 316 313 312
320 315 323 327 320 326 323 315 316 314 314 314 314 318 325 327 322 316 309 308 313 318 318 313 312 312 312 312 311 311 306 303 305 306 308 309 309 310 310 310 309 308 310 312 314 315 317 319 321 322 323 325 326 328 329 329 329 329 329 329 327 327 328 330 329 329 328 328 328 328 329 329 329 328 327 326 325 325 325 324 324 324 322 322 323 322 321 321 321 320 318 318 316 315 314 310 309
329 314 326 329 317 331 333 318 318 316 313 312 314 320 322 322 321 314 307 307 311 316 317 312 312 311 310 311 309 309 307 303 304 306 307 308 308 309 310 310 309 309 311 313 314 316 318 319 321 322 323 324 324 326 328 327 327 327 327 327 327 326 327 328 328 327 327 327 327 328 328 328 327 326 325 325 324 324 323 323 323 321 321 321 321 321 320 320 320 318 315 316 314 312 310 306 304
334 319 323 329 321 328 327 317 316 315 314 312 313 320 323 321 318 312 307 307 309 313 315 313 312 310 308 309 308 308 307 305 304 304 306 307 307 309 310 310 309 309 311 313 314 316 317 318 320 321 323 323 323 325 326 326 326 326 326 326 326 325 325 326 326 326 326 326 326 326 326 325 325 325 324 323 322 322 322 322 320 320 320 320 319 319 318 317 316 315 312 312 312 309 307 303 301
332 322 321 328 325 323 323 322 317 312 314 314 314 316 319 319 317 315 311 307 309 315 317 315 311 308 307 306 307 307 307 307 306 303 304 306 306 308 311 310 309 310 312 312 314 315 317 318 317 320 322 321 322 323 323 324 324 323 324 324 324 324 324 325 325 326 325 325 325 325 324 323 323 323 323 322 321 320 320 319 318 317 317 316 314 313 311 310 310 311 310 309 309 307 305 302 300
332 326 325 327 323 319 323 326 317 311 314 316 316 316 316 317 315 316 316 309 311 317 316 313 310 308 307 306 306 306 306 307 305 303 304 305 306 308 310 310 310 311 312 312 314 315 316 316 316 318 320 319 321 321 320 322 321 321 321 321 322 322 323 324 324 324 323 323 324 323 323 322 322 322 321 321 320 319 318 317 314 311 310 310 308 305 304 304 306 308 308 307 306 305 303 301 299
333 335 336 330 323 322 325 327 322 314 314 317 317 317 317 316 315 315 316 311 311 315 312 310 309 308 307 306 306 306 306 306 304 303 304 305 305 307 309 309 310 312 312 312 313 313 314 315 315 316 317 318 319 317 317 320 319 319 319 319 321 321 321 322 321 321 322 322 322 322 321 321 321 320 319 319 318 318 316 313 308 304 304 305 303 302 302 303 305 306 307 306 305 303 301 299 299
326 330 331 326 323 325 325 325 323 314 314 322 319 316 317 316 316 315 314 313 312 314 313 311 310 308 308 307 306 306 306 305 303 302 304 304 305 306 308 309 310 312 312 312 312 312 313 314 315 315 316 317 317 317 317 319 319 317 315 315 318 317 317 319 319 319 320 321 321 320 320 319 319 318 318 317 317 316 313 307 303 301 301 300 300 302 304 304 305 305 306 305 304 302 298 297 297
322 325 323 323 325 325 323 319 318 314 315 323 320 315 317 315 314 313 312 314 315 315 314 313 312 309 308 308 307 307 306 305 303 302 302 303 304 306 308 309 310 310 310 310 310 311 312 313 314 314 316 316 315 317 318 318 318 317 316 315 316 315 314 317 318 318 318 319 318 318 318 318 317 317 316 315 315 314 310 304 300 298 297 297 298 301 303 304 304 305 304 303 303 301 297 295 296
322 325 321 323 325 323 321 317 316 314 314 323 323 317 317 315 313 313 312 313 312 312 312 312 312 311 310 309 308 307 307 307 306 303 300 301 303 305 308 309 309 309 309 310 310 311 311 311 312 313 314 314 313 314 316 316 316 317 318 317 316 316 314 314 316 316 317 317 316 316 317 317 316 315 313 313 312 310 305 300 297 296 296 296 297 300 302 303 303 303 303 302 301 299 296 295 297
321 324 322 324 324 321 322 320 316 315 314 320 322 317 316 315 314 315 313 313 312 312 312 311 310 311 311 310 309 308 308 308 307 304 301 299 301 304 307 307 308 309 309 309 309 310 310 310 311 311 312 313 313 313 313 314 314 315 316 314 313 314 312 311 313 314 314 315 314 313 314 314 313 312 311 310 308 303 299 296 295 295 295 295 295 297 299 301 303 303 302 302 301 299 296 295 297
322 322 321 322 323 322 322 321 319 319 318 317 318 321 325 323 320 319 318 319 317 312 312 312 311 310 310 310 310 309 308 307 307 305 302 299 299 303 306 307 307 308 308 309 308 309 309 310 310 311 311 311 313 312 311 313 314 313 310 307 306 307 305 305 308 309 308 310 310 309 310 310 310 310 308 305 301 297 295 295 295 295 294 294 294 294 295 298 300 301 301 301 301 300 297 294 295
326 325 321 320 322 322 321 320 320 325 328 320 316 326 338 336 330 325 328 330 326 320 318 316 314 312 310 310 309 309 309 308 306 305 302 300 299 302 305 306 307 308 308 308 308 309 309 309 309 309 309 311 312 312 311 312 314 313 310 306 304 302 300 300 305 307 305 306 307 307 307 307 307 307 302 298 295 295 295 294 294 294 293 293 293 293 293 293 294 295 296 296 297 296 295 292 291
326 326 321 319 318 319 319 320 321 327 331 319 314 324 332 330 324 323 332 334 328 324 322 319 317 315 313 312 310 309 309 307 306 305 302 300 300 301 304 306 307 307 307 308 309 309 308 308 308 308 309 310 310 310 309 310 310 310 310 311 311 309 304 301 303 304 303 304 304 304 304 304 303 301 296 294 294 294 294 294 294 293 293 293 293 293 292 291 291 291 292 292 292 292 292 291 289
329 322 320 320 318 320 320 319 321 326 326 319 319 323 324 324 322 324 329 328 324 323 321 319 318 317 316 314 312 310 309 307 306 305 303 301 300 301 304 306 307 307 307 308 308 308 308 308 308 307 308 309 309 310 309 308 308 308 308 309 310 312 312 307 302 300 299 301 301 301 302 300 297 294 293 293 293 293 293 293 293 293 293 292 292 292 291 291 291 290 290 290 290 290 291 291 289
326 316 317 321 320 322 321 320 322 322 321 323 324 321 322 329 330 327 324 323 326 326 323 321 319 319 320 319 315 311 309 307 306 305 303 300 299 301 304 306 307 307 307 308 308 307 307 308 307 306 306 306 307 307 307 306 307 308 306 306 306 307 308 306 301 298 296 297 298 298 296 295 292 292 292 292 292 292 293 292 292 292 292 291 291 291 291 291 290 290 290 290 290 289 290 290 289
318 313 317 320 321 323 324 325 325 324 325 326 327 323 323 328 328 327 324 324 328 326 323 320 320 324 324 323 319 311 309 307 305 305 302 300 300 301 304 306 306 307 307 308 307 306 306 307 306 305 304 304 305 304 304 304 305 306 305 305 307 306 303 299 295 294 293 293 294 293 292 292 291 291 291 291 292 292 292 292 291 291 291 291 290 290 290 290 290 289 289 289 289 289 288 288 288
314 319 326 324 326 327 327 328 325 327 328 324 325 325 323 326 329 329 326 328 331 326 323 322 323 331 333 329 322 313 309 308 305 304 301 299 300 301 303 306 306 306 306 306 306 305 305 306 305 304 303 303 303 303 304 304 304 305 305 306 309 308 302 296 292 291 291 290 291 291 291 291 291 291 291 291 291 291 291 291 291 290 290 290 290 290 289 289 289 289 289 289 289 288 288 288 288
318 331 331 326 329 327 327 329 326 329 329 322 322 321 320 325 330 330 328 329 328 324 325 325 325 333 339 337 327 314 308 307 304 304 302 299 299 300 302 305 305 305 305 304 305 304 304 304 304 303 302 302 303 302 303 304 304 304 305 305 309 310 305 298 294 292 291 290 291 291 291 290 290 290 290 290 291 290 290 290 290 290 289 289 289 289 289 288 288 288 288 288 288 288 288 288 288
322 331 328 326 329 327 326 328 326 328 325 317 316 319 320 322 324 325 325 324 324 321 320 321 322 327 330 331 328 315 307 306 304 303 302 300 299 299 300 303 304 303 304 303 303 303 302 303 302 301 301 301 302 301 301 303 303 304 304 305 307 309 306 301 296 293 291 291 291 291 290 290 290 290 290 290 290 290 290 289 289 289 289 289 288 288 288 288 288 288 288 288 288 288 287 287 287
322 325 327 328 328 330 335 332 324 324 323 315 312 319 323 323 323 323 320 318 321 320 319 319 319 320 319 320 322 315 307 305 304 302 302 301 299 298 300 302 303 302 303 302 302 302 301 301 301 301 300 300 301 302 300 301 302 302 303 305 306 306 304 301 297 294 292 291 291 291 291 290 290 290 290 290 290 289 289 289 289 289 288 288 288 287 287 287 287 288 288 288 287 287 287 287 287
319 323 324 327 330 334 338 336 328 326 326 319 314 319 328 330 327 322 320 321 321 321 321 319 318 316 314 314 315 314 309 304 302 301 301 300 298 298 299 301 302 302 303 302 301 301 300 300 300 300 300 299 299 301 300 299 300 300 301 303 305 304 302 299 296 293 292 291 291 291 291 290 290 290 290 289 289 289 289 288 288 288 288 287 287 287 286 286 287 287 287 287 287 287 286 286 286
319 322 322 324 327 325 323 324 324 324 326 325 320 323 328 329 324 319 320 325 326 324 320 318 319 317 313 313 312 310 309 304 301 301 301 299 298 298 299 300 301 302 302 302 301 300 300 300 300 300 300 300 299 299 299 298 299 300 300 301 303 301 299 296 293 292 291 291 291 291 291 291 290 290 289 289 289 288 288 288 288 287 287 286 286 286 286 286 286 287 287 287 287 286 286 286 286
319 319 322 321 319 319 320 320 316 316 322 326 324 326 328 326 324 321 321 323 324 323 320 321 324 319 315 318 314 309 308 306 302 301 300 299 297 298 298 299 300 301 302 302 301 300 300 300 300 299 299 299 298 298 299 299 299 299 299 300 301 299 297 294 292 292 291 291 291 291 291 290 290 289 289 289 288 288 288 287 287 287 286 286 286 286 286 286 286 287 287 287 286 286 285 285 285
321 323 323 318 316 321 327 325 323 323 325 327 325 325 327 326 324 323 320 321 322 321 320 322 322 318 319 321 316 311 310 307 302 300 300 298 297 297 298 299 300 301 301 302 301 301 300 300 300 299 298 298 298 297 298 299 299 298 298 298 298 298 296 294 292 291 291 291 291 291 290 290 290 289 289 288 288 288 287 287 286 286 286 286 285 285 286 286 286 286 286 286 286 286 285 285 284
320 324 321 320 325 328 325 325 331 330 328 330 328 323 322 322 324 324 321 327 333 325 320 319 319 320 322 319 316 315 312 306 301 300 300 298 297 296 297 298 299 300 301 301 301 301 300 299 299 299 299 299 300 298 297 298 299 299 299 298 297 296 294 292 291 291 291 291 291 291 290 290 289 288 288 288 288 287 287 286 286 286 285 285 285 286 286 286 286 286 286 286 285 285 285 284 284
315 317 316 319 325 326 324 324 327 329 329 330 330 326 323 323 325 326 322 326 332 331 326 324 326 327 322 317 318 320 316 308 302 300 300 298 297 296 297 298 298 299 300 301 300 300 299 299 298 298 298 298 299 298 298 297 297 297 297 297 296 294 292 291 290 291 291 291 291 291 290 290 289 288 288 288 288 287 286 286 285 285 285 285 285 286 286 286 286 286 286 286 285 285 284 284 284
317 319 319 319 320 322 324 323 322 328 331 330 330 327 324 326 325 325 325 323 324 331 331 329 336 332 321 318 322 322 317 309 302 299 300 298 296 296 297 298 298 299 299 300 300 299 299 298 298 297 297 296 296 296 298 297 296 295 295 295 294 293 291 290 290 290 291 291 291 291 290 289 288 288 288 288 287 287 286 286 285 285 285 285 286 286 286 286 286 286 286 285 285 284 284 284 283
318 320 320 319 319 320 323 322 320 324 326 327 328 325 323 329 324 322 326 325 322 327 327 329 340 332 321 321 323 319 317 311 304 300 300 297 295 295 296 297 297 298 298 298 298 298 298 297 297 297 296 296 296 295 296 296 295 294 294 294 294 292 291 289 289 290 290 290 290 290 290 289 288 288 287 287 287 287 286 286 285 285 285 285 286 286 287 287 287 286 286 285 285 285 284 284 283
Wind_Speed
6 6 5 4 5 2 3 5 2 2 4 2 2 1 2 2 0 2 1 2 1 1 1 1 2 2 2 3 6 6 4 4 5 4 3 3 4 4 5 6 5 9 13 12 12 12 12 12 12 12 10 9 11 12 14 14 14 13 12 13 13 13 13 12 11 12 11 13 14 14 14 14 14 14 15 16 16 15 16 17 19 20 20 22 21 21 20 18 18 17 17 16 15 14 13 13 14
5 5 4 3 5 2 1 4 3 3 5 2 2 2 3 2 1 4 5 3 3 2 2 5 6 5 4 4 5 3 1 1 4 3 2 1 3 4 4 5 8 11 13 12 12 12 13 13 12 13 11 10 11 12 13 13 13 12 11 12 12 11 11 11 11 12 11 12 13 14 13 13 13 14 14 14 14 14 15 17 18 19 21 22 22 21 20 18 17 17 17 17 17 17 16 15 15
5 4 4 2 4 4 1 4 3 1 5 1 3 3 2 1 3 5 7 6 6 6 3 4 5 4 4 4 3 2 1 1 1 1 2 1 2 4 5 5 10 12 13 13 12 12 12 12 12 13 12 11 11 11 12 13 12 12 11 11 11 11 10 10 11 12 11 11 12 14 13 12 13 13 13 13 13 13 15 17 18 20 22 22 21 21 20 18 18 17 17 18 18 19 19 18 16
5 4 4 1 2 4 4 4 2 4 3 3 3 4 2 3 6 5 6 6 6 4 1 2 3 2 3 3 1 1 1 3 1 0 1 2 2 2 4 6 10 12 13 14 13 12 11 11 12 12 12 11 11 10 10 12 13 12 11 11 11 11 10 9 10 11 11 11 11 13 13 12 12 12 12 13 12 13 15 16 18 20 22 21 20 20 19 18 18 17 17 18 19 19 19 18 17
4 6 4 3 3 2 3 3 3 4 2 4 2 5 4 5 7 5 4 4 4 2 1 2 2 2 2 2 0 1 2 3 3 2 2 2 1 1 4 6 9 11 12 14 14 13 11 10 11 12 12 11 11 11 10 12 13 12 10 10 10 10 9 8 10 11 11 10 10 12 13 12 11 11 11 12 12 13 14 15 18 20 20 20 19 20 19 19 18 17 17 18 19 19 18 18 17
2 6 8 7 3 1 3 3 2 1 4 5 3 5 5 6 6 5 3 2 2 4 4 1 2 2 1 1 1 1 2 2 5 4 3 1 1 2 5 7 8 9 10 13 14 12 11 11 12 12 12 12 11 10 10 10 12 12 11 10 10 10 9 9 10 11 11 10 10 11 12 11 11 10 11 12 12 12 13 15 17 19 19 19 19 20 19 19 19 18 17 17 19 19 18 18 17
2 2 6 7 3 2 3 3 4 2 2 4 3 5 5 6 5 4 2 0 1 1 2 0 2 5 1 1 1 2 2 3 5 3 3 2 2 3 6 9 8 9 10 11 12 12 11 10 11 13 12 12 11 11 10 10 10 11 11 10 10 10 9 9 9 10 10 10 9 10 11 11 10 10 11 12 11 11 12 14 17 18 18 19 19 20 19 19 19 18 17 17 18 18 18 18 17
5 1 2 4 2 4 4 3 3 2 0 2 3 5 5 6 5 4 2 2 2 1 2 1 1 3 0 1 1 3 2 3 4 2 3 1 3 4 7 9 8 8 9 11 12 12 11 9 8 11 12 12 12 11 10 10 10 10 10 11 10 10 10 9 9 9 9 8 8 9 11 10 10 10 10 11 11 10 12 14 16 17 18 18 19 19 19 19 19 19 19 18 18 18 17 17 17
6 2 1 4 3 3 3 2 1 2 2 4 3 5 4 4 5 3 2 1 1 2 2 3 0 1 1 2 1 4 2 2 2 1 1 1 4 6 7 9 8 7 8 9 11 12 11 9 8 7 9 12 12 11 11 11 10 10 10 11 11 10 10 9 9 8 8 8 8 9 10 11 10 9 9 10 10 10 11 13 15 16 17 18 18 19 19 19 19 19 19 19 19 18 18 18 18
5 3 2 4 3 3 3 1 1 2 4 5 4 5 3 4 4 1 2 2 1 2 2 3 2 2 3 3 2 2 1 2 2 1 0 1 4 7 9 10 9 7 8 8 9 12 11 10 9 8 7 10 12 12 12 11 11 11 10 10 11 11 10 10 9 8 8 8 7 9 10 11 10 9 9 9 9 9 10 12 13 15 16 17 18 18 19 20 20 19 19 19 19 19 19 18 18
3 4 3 4 4 2 2 3 3 3 4 5 4 5 4 5 4 1 1 2 0 2 1 0 2 3 3 0 3 1 3 4 3 3 2 2 4 7 9 10 10 9 9 9 10 12 13 12 11 11 10 9 11 13 13 13 12 11 10 10 10 10 10 10 10 9 8 8 7 8 9 10 10 9 9 8 8 8 10 11 12 14 15 16 17 18 19 20 20 20 19 19 19 19 19 18 17
2 3 4 4 3 3 3 4 3 4 6 5 2 3 3 6 4 2 3 3 1 2 1 1 2 4 4 2 3 2 4 5 5 5 5 4 4 7 8 10 12 10 11 10 10 12 13 13 12 11 11 9 10 12 13 14 12 12 11 10 10 10 10 10 9 9 8 7 7 7 8 9 9 8 8 8 8 8 9 10 11 13 14 15 17 18 19 21 21 20 20 19 19 18 18 18 18
3 2 5 3 3 2 3 5 2 3 5 3 3 2 3 6 3 7 6 4 3 3 2 3 3 3 2 3 2 2 4 8 8 8 8 7 6 8 8 10 13 11 11 10 10 12 12 12 11 9 9 9 9 11 10 11 12 12 12 11 11 10 10 9 9 9 8 8 7 7 7 7 8 8 8 7 7 7 8 9 10 12 13 14 16 17 19 21 22 21 21 19 19 18 18 18 18
3 3 5 3 2 3 4 3 1 2 3 6 3 1 2 2 3 6 8 5 3 4 1 2 3 3 2 2 2 3 6 10 11 10 9 9 9 10 11 11 13 13 12 11 10 12 12 10 10 10 9 9 9 8 8 10 13 12 12 12 12 11 10 10 9 9 8 8 7 7 7 7 7 7 7 6 7 7 7 8 9 11 12 13 15 16 18 21 22 22 22 21 20 19 19 19 19
4 3 5 4 2 1 3 2 2 5 5 5 2 1 2 0 2 4 5 6 4 3 0 1 2 2 3 3 4 5 9 14 12 11 10 11 10 11 13 12 13 14 13 12 11 12 12 10 10 11 11 9 8 9 9 11 12 12 12 12 12 12 11 10 9 9 8 8 8 7 7 6 6 7 7 6 6 6 6 7 8 9 10 12 13 15 17 20 21 21 21 21 21 20 20 20 20
3 4 5 4 2 2 4 2 3 3 5 5 1 0 4 1 2 3 3 4 2 1 2 0 1 1 3 5 4 3 11 16 13 12 11 13 12 11 12 12 12 14 14 11 11 12 12 11 9 11 12 10 10 10 9 10 11 12 13 12 13 12 11 11 10 9 9 9 8 8 7 7 7 7 7 6 6 6 6 7 8 8 9 10 12 14 16 18 19 19 20 20 20 20 21 21 21
3 5 5 3 3 4 5 4 4 4 5 5 4 2 5 1 1 1 1 4 4 0 3 2 1 0 3 3 1 4 13 16 14 14 13 14 14 13 12 11 11 13 14 12 11 11 11 11 8 9 12 12 12 11 10 11 12 11 12 12 13 13 12 11 11 10 10 10 9 9 8 8 8 7 7 8 7 6 6 7 7 7 7 9 11 12 14 16 17 17 18 19 19 19 20 21 21
5 4 4 3 4 4 6 7 7 5 2 5 4 3 7 4 2 1 1 5 3 1 2 2 4 3 3 2 2 7 14 17 16 15 14 14 14 14 14 13 12 12 14 15 15 14 14 13 10 9 11 13 12 11 12 14 13 12 13 13 13 13 13 13 12 11 11 11 11 10 9 8 8 7 8 8 7 7 6 7 7 8 7 7 9 11 13 15 16 15 16 17 18 18 19 20 21
4 3 4 3 6 5 6 7 6 2 1 4 3 1 4 5 3 2 1 3 4 0 3 4 5 5 2 2 4 9 15 17 17 16 16 15 14 15 14 14 14 14 14 15 15 17 17 16 13 10 10 13 13 12 14 16 15 13 14 14 13 12 12 13 13 13 13 12 11 10 9 9 8 8 7 8 8 8 7 7 8 8 8 7 8 11 12 14 15 14 14 14 16 17 18 19 20
2 4 3 4 6 4 4 6 7 4 3 6 4 1 1 3 3 1 2 1 1 3 5 1 4 7 5 4 5 10 15 16 16 16 16 15 14 15 15 15 14 15 15 16 16 16 17 17 17 14 11 13 14 12 12 16 15 12 13 14 13 11 11 13 14 14 13 12 12 10 10 10 9 9 9 8 9 11 10 8 8 10 10 8 9 11 12 13 12 12 12 12 14 16 16 18 18
2 4 3 5 3 1 3 6 6 4 4 5 4 3 1 3 2 2 5 4 3 7 8 8 9 9 8 7 6 11 15 15 15 15 16 15 14 14 14 14 14 14 15 16 17 17 17 18 19 19 16 14 16 15 12 14 15 13 12 12 13 12 11 12 13 14 12 11 12 10 10 10 10 11 10 10 11 12 13 11 9 10 11 10 10 11 11 11 10 10 9 9 12 13 14 17 17
3 2 3 5 3 1 2 5 4 4 4 5 5 4 3 2 1 3 8 6 6 6 7 9 9 7 9 9 9 10 13 14 14 15 16 15 15 14 13 13 13 13 14 14 16 17 17 18 20 22 20 18 18 19 16 14 16 16 12 13 16 15 13 13 13 13 12 11 12 11 10 10 10 11 10 10 11 12 13 14 11 10 12 13 11 11 11 10 9 10 9 8 11 12 14 16 16
3 1 1 4 3 1 1 2 3 5 6 6 5 3 3 3 2 2 7 9 8 5 5 6 7 7 10 11 10 9 10 12 15 16 17 17 16 15 14 13 12 12 13 13 14 15 16 18 19 21 22 20 17 18 20 18 17 18 17 15 15 16 15 14 16 15 12 12 12 10 10 10 11 11 10 10 10 10 11 14 13 11 13 15 13 11 10 9 9 11 10 10 11 13 16 17 15
5 1 2 2 4 3 1 2 3 4 5 6 4 2 3 5 4 1 5 11 6 3 4 3 4 6 11 10 9 9 10 12 15 17 17 17 17 15 14 13 12 13 13 13 14 14 16 17 18 20 22 22 19 16 18 18 18 21 23 18 12 16 17 15 18 17 15 13 11 11 10 10 11 12 11 10 9 10 12 13 13 12 14 16 14 12 11 11 12 13 12 12 12 15 18 16 13
5 2 2 1 2 4 2 3 4 2 2 1 3 2 3 5 3 0 8 11 3 1 2 3 4 7 9 8 8 8 9 11 13 15 15 15 15 15 14 13 13 13 13 13 13 14 15 15 17 19 20 22 21 18 18 18 18 19 21 20 17 19 19 17 17 17 17 14 13 14 12 9 10 11 11 11 11 12 12 11 12 12 13 15 15 13 12 12 14 15 13 13 13 15 17 14 12
1 3 1 0 2 5 3 1 3 2 1 1 3 3 5 3 1 4 9 7 2 3 4 4 6 7 6 7 7 8 8 11 13 14 14 14 14 15 15 14 13 13 13 12 12 12 12 11 13 17 18 21 21 20 19 20 21 17 14 19 22 21 19 18 15 14 14 13 14 13 10 12 13 13 13 12 12 12 11 11 11 11 13 14 14 13 12 13 15 15 13 14 15 15 16 13 12
2 4 2 2 2 5 2 0 2 2 2 2 4 6 5 4 1 5 6 2 4 5 4 2 5 6 6 5 6 8 9 11 14 13 13 14 15 16 15 14 14 13 12 12 11 10 9 8 9 13 17 20 21 21 20 20 20 18 16 16 18 20 20 22 21 18 13 12 13 9 10 15 15 14 14 13 13 13 12 11 11 11 12 12 12 12 12 13 14 14 14 15 15 15 16 14 14
2 3 1 3 6 4 1 0 3 1 1 4 5 4 4 4 1 6 3 2 3 4 4 3 5 6 6 5 5 6 9 12 14 14 15 17 18 18 16 15 14 13 11 10 8 7 7 5 6 10 16 19 21 22 21 19 17 19 21 17 14 19 22 24 23 20 17 15 12 9 12 14 13 14 14 14 14 13 12 11 11 11 11 12 12 12 13 14 14 15 15 15 15 16 17 17 19
1 3 0 6 8 5 2 1 2 2 2 4 5 2 4 3 7 6 1 2 2 4 6 5 6 6 5 5 5 5 8 11 13 15 18 18 18 17 16 15 13 12 10 7 6 6 7 7 9 12 16 19 21 22 22 20 18 18 19 16 17 20 21 22 21 19 18 16 12 13 16 15 13 13 13 14 14 13 13 12 12 11 12 14 13 13 14 15 14 15 15 15 16 16 17 19 21
1 3 2 4 7 5 4 2 1 3 3 2 3 3 6 8 11 6 0 5 5 3 6 5 5 5 5 5 4 5 8 11 14 17 19 17 16 16 15 13 12 11 9 8 7 8 8 9 12 14 17 19 20 22 21 20 19 17 15 15 18 20 19 18 18 16 15 13 12 15 18 16 15 14 15 15 13 13 14 14 14 14 16 16 14 14 14 14 14 14 14 14 15 16 18 21 22
1 2 2 3 2 4 6 2 3 4 1 1 3 3 6 9 11 5 2 6 6 6 8 6 6 6 5 5 5 6 8 12 15 17 18 17 16 15 14 13 11 10 9 9 10 10 10 12 14 15 17 19 21 22 21 21 21 21 20 20 18 17 17 17 16 13 13 14 15 16 16 15 16 17 16 15 13 13 14 16 17 17 17 17 16 13 12 12 12 13 14 15 17 19 22 24 24
3 1 3 3 1 5 8 3 4 3 1 2 3 3 7 9 9 6 2 4 5 7 7 6 7 7 7 6 6 7 7 11 15 18 19 18 17 15 15 13 11 11 11 11 12 12 13 14 16 17 18 20 22 23 22 22 23 22 22 21 20 18 19 20 16 12 13 17 18 17 18 17 17 17 15 14 14 15 15 17 18 18 17 14 13 11 10 11 11 14 16 16 20 24 26 27 27
4 1 3 2 1 3 6 2 2 1 1 1 1 3 5 5 6 5 0 5 5 6 8 8 8 8 8 6 6 7 6 9 13 18 21 19 18 16 15 14 12 12 12 13 13 14 15 16 18 18 19 21 21 22 22 22 22 22 21 20 20 21 21 21 18 14 15 18 16 16 19 20 19 18 16 14 15 16 16 17 17 16 14 11 12 13 13 14 15 18 21 20 22 26 28 30 30
4 2 1 4 3 2 3 4 2 1 2 2 2 3 7 8 5 4 1 5 5 7 10 9 9 8 7 6 7 8 8 8 11 17 21 20 19 18 17 15 13 13 13 14 14 15 16 17 19 20 20 21 21 22 23 23 23 23 22 21 21 21 20 20 19 17 17 17 15 15 17 18 18 18 17 15 16 17 17 17 16 15 14 14 16 16 16 17 18 20 24 25 24 27 29 31 31
3 3 1 3 3 2 3 4 2 2 2 2 3 4 11 14 11 7 5 6 6 9 10 9 8 8 7 7 9 9 9 10 12 16 21 21 20 19 18 16 15 15 15 15 16 17 18 19 19 20 21 21 21 22 23 24 23 23 22 20 21 21 20 19 18 18 18 17 15 16 17 17 17 17 17 17 18 19 18 18 17 17 17 17 18 18 19 20 21 23 25 28 27 28 29 30 31
6 6 4 4 3 3 5 5 5 3 2 4 7 7 11 12 13 10 5 6 7 9 8 8 8 8 8 8 9 9 11 12 12 15 19 21 22 21 20 18 17 17 17 17 18 19 20 20 20 21 22 22 23 23 23 24 23 23 23 23 22 20 19 18 17 18 18 16 15 16 16 16 16 16 17 19 20 20 20 20 20 20 18 18 19 20 22 23 24 26 27 29 30 30 30 30 29
6 5 3 4 4 5 5 4 6 2 3 6 8 8 11 11 13 12 4 4 6 9 10 11 11 9 9 10 12 12 12 10 8 14 19 22 23 22 21 19 19 19 19 20 19 20 21 21 22 22 22 23 23 23 22 22 23 24 25 24 23 21 20 19 18 18 18 17 16 17 17 17 16 17 19 21 21 21 22 22 22 21 20 20 21 22 24 24 25 26 28 29 29 31 31 28 27
5 5 2 2 3 6 7 3 4 1 3 6 4 5 11 12 13 12 4 3 8 11 11 14 14 12 10 11 14 12 9 5 6 12 18 22 24 24 23 21 22 22 21 22 21 22 23 23 24 24 24 24 24 23 23 23 24 25 23 22 22 21 21 20 19 19 18 17 18 19 19 17 16 18 21 21 22 22 23 24 23 23 22 22 23 24 24 25 25 25 27 28 29 30 28 27 26
3 3 2 3 3 4 6 3 4 1 4 4 4 4 10 12 13 12 10 9 10 10 12 14 14 12 11 12 13 11 8 6 7 10 15 22 24 24 24 24 24 23 22 23 23 23 24 24 25 25 25 26 25 25 26 26 25 23 22 22 23 22 22 21 20 19 19 19 20 21 20 19 19 21 22 22 23 23 24 25 24 23 22 21 23 25 24 24 24 23 22 24 27 28 24 22 19
2 3 3 3 3 1 3 4 3 0 2 2 4 5 7 10 12 11 12 11 9 10 13 13 12 12 14 13 10 10 11 10 9 9 12 18 22 24 25 25 25 24 24 25 25 26 26 26 27 27 26 26 26 27 27 26 25 24 24 25 25 23 23 22 21 21 21 22 22 22 22 22 23 23 23 23 23 24 25 25 25 23 22 21 21 23 23 22 22 22 20 21 24 25 21 16 10
4 5 6 4 4 6 6 4 4 2 2 3 3 6 6 7 10 10 7 5 7 10 12 13 13 13 13 11 10 11 11 11 11 11 11 16 21 24 25 25 25 25 27 28 28 27 28 27 27 27 27 27 27 28 27 26 26 26 26 25 23 22 22 22 23 23 23 23 24 24 24 24 24 24 24 24 24 25 25 24 23 23 22 21 20 21 22 21 21 20 19 19 20 20 19 15 10
5 5 10 10 8 7 4 3 5 4 4 3 3 4 6 4 7 10 5 5 7 8 9 13 14 11 10 11 12 11 9 10 11 12 13 16 20 22 24 25 26 28 29 30 30 28 28 28 28 28 28 28 28 28 28 28 28 28 29 28 25 24 24 23 24 25 25 25 25 26 26 25 25 25 25 26 26 26 25 23 22 22 21 21 20 21 22 22 21 19 18 17 17 17 18 19 17
3 5 9 10 7 5 4 1 2 1 4 4 2 1 6 5 7 10 5 6 10 9 10 12 12 10 9 10 11 9 9 9 9 10 12 15 19 21 23 27 29 29 29 29 30 29 28 29 29 30 30 30 30 30 29 29 30 31 31 30 28 27 26 24 25 27 27 27 27 27 27 27 27 27 27 27 26 25 23 22 21 21 21 21 21 22 23 23 22 20 18 17 17 16 16 19 21
3 4 5 7 7 6 5 4 3 3 3 4 1 2 4 6 8 8 3 6 11 11 12 13 12 12 10 10 10 10 10 9 9 9 11 14 20 24 27 30 31 29 28 29 30 30 30 30 30 30 30 30 30 31 30 30 31 32 31 30 29 28 27 27 28 27 28 28 28 29 29 29 29 29 28 27 25 24 22 22 21 21 21 21 21 22 23 23 23 22 21 19 18 16 14 18 20
4 2 6 6 6 5 4 5 3 1 3 5 2 4 3 7 7 4 3 5 9 11 14 14 12 11 10 10 10 9 8 8 9 10 11 14 21 27 28 29 28 27 28 30 31 31 30 30 30 30 30 31 31 31 31 30 31 32 31 30 29 27 28 30 31 30 29 30 31 31 31 32 31 29 28 26 25 23 22 21 22 22 22 22 22 22 22 22 22 22 22 21 20 19 16 17 18
3 6 7 6 5 5 5 4 3 3 3 7 6 6 3 6 4 2 2 3 7 10 12 12 9 7 8 9 8 6 6 6 8 9 11 16 22 25 25 25 26 27 29 31 31 31 31 31 31 31 31 31 32 31 31 32 32 31 30 29 28 28 29 32 32 32 32 32 33 33 33 32 31 30 28 26 25 23 23 23 23 22 23 23 22 22 22 22 22 22 21 20 19 19 19 17 17
6 7 6 6 6 5 4 2 4 2 5 7 6 9 7 5 3 5 5 5 7 8 9 10 7 6 7 7 6 5 5 5 6 7 8 13 18 20 21 23 26 27 28 31 32 32 32 32 32 32 31 32 32 32 32 33 32 31 30 29 27 27 32 35 35 35 34 34 35 34 34 33 31 30 29 27 26 25 24 24 23 23 23 23 22 22 23 23 23 22 21 20 18 18 18 16 16
5 5 5 4 3 4 4 4 4 2 6 4 2 5 7 7 6 4 6 7 6 8 9 10 8 8 8 6 5 5 5 5 6 6 6 9 13 17 21 23 26 27 29 31 32 33 33 33 33 32 31 32 32 32 33 34 33 31 30 30 27 28 33 37 37 38 38 37 37 36 35 34 32 31 29 28 27 26 26 25 25 24 24 23 23 23 23 23 22 22 21 20 18 17 16 14 14
4 5 5 4 2 3 3 3 0 3 7 3 1 1 3 8 8 8 11 12 11 10 10 9 9 10 10 7 5 4 4 5 6 6 7 8 10 16 21 24 26 27 30 31 33 33 32 33 33 32 32 32 32 33 33 34 33 32 31 31 29 30 34 37 39 40 41 40 39 39 38 36 35 33 31 30 29 28 27 26 26 25 24 24 24 24 23 23 22 21 20 19 18 17 15 13 13
4 5 5 4 2 1 3 4 2 4 5 3 1 1 3 5 5 11 17 17 13 10 9 9 9 11 10 7 5 4 5 6 6 7 8 8 11 16 22 25 26 28 30 31 32 32 32 32 33 33 32 32 33 33 33 33 33 33 32 31 30 32 36 39 40 42 43 41 40 40 39 38 36 34 33 31 30 29 27 26 26 25 24 24 24 23 23 22 21 20 19 18 17 16 15 13 12
5 4 5 5 5 5 4 4 3 5 4 3 2 1 3 3 3 7 11 11 8 8 9 8 9 10 8 6 5 5 5 5 5 7 8 9 12 18 22 24 27 28 30 31 32 33 33 33 34 34 33 33 34 34 35 34 34 33 32 31 31 34 37 40 41 43 43 42 40 39 38 36 35 33 32 31 30 29 28 27 26 25 24 24 23 23 22 21 19 18 18 16 16 15 13 12 12
3 3 4 3 5 5 2 3 5 2 3 4 2 4 5 4 6 8 7 8 7 7 8 7 10 11 5 6 7 6 6 6 6 7 8 9 14 19 22 24 26 28 30 31 32 34 34 34 35 35 34 34 34 35 35 35 35 34 32 32 33 36 38 40 42 43 43 42 40 39 37 35 34 33 32 32 30 29 28 27 26 25 25 24 23 22 21 19 18 16 16 15 14 13 12 11 11
2 3 4 4 4 6 2 2 1 4 2 4 2 4 5 3 7 9 7 9 9 8 8 7 11 10 5 7 8 5 6 6 7 8 8 9 13 18 21 23 26 28 30 32 33 35 36 36 36 34 34 34 35 35 36 35 35 34 34 34 35 38 40 41 43 43 43 41 39 37 36 35 34 33 33 32 31 29 28 27 26 26 25 24 22 21 19 18 16 14 13 12 12 12 11 10 9
5 4 6 3 2 3 2 1 2 3 3 5 2 5 5 3 6 5 1 7 11 11 10 10 11 7 6 11 7 5 7 7 7 8 7 8 11 16 19 22 25 28 30 32 34 35 35 36 36 35 34 35 35 35 36 36 36 35 35 36 37 39 40 41 43 44 43 41 39 38 37 36 35 34 33 32 31 30 28 27 27 26 25 24 22 20 18 16 15 13 13 11 11 11 11 10 9
5 4 4 4 2 2 2 2 2 1 3 5 4 5 4 5 6 3 4 8 10 11 10 10 10 9 10 11 5 4 6 7 6 7 6 7 10 16 20 22 25 27 29 31 33 34 34 34 35 35 35 36 36 36 36 36 37 36 36 37 38 39 41 41 43 44 43 42 41 39 38 37 36 35 34 33 32 30 29 28 27 27 26 24 22 20 18 16 14 13 13 12 11 10 9 10 10
3 2 3 2 2 4 3 3 3 3 3 3 4 5 5 7 7 7 10 12 10 9 7 7 10 12 10 8 4 5 7 7 7 7 7 7 11 17 21 24 26 28 29 30 31 33 34 34 34 34 34 35 36 37 37 37 37 37 37 38 39 40 41 42 43 44 44 43 42 40 39 38 37 36 35 33 32 30 29 28 28 27 26 24 22 20 18 16 15 13 12 12 11 10 9 9 10
4 4 5 3 1 2 1 1 2 4 3 2 2 6 9 6 5 9 11 11 10 10 7 8 10 10 8 6 6 6 6 7 6 6 7 7 11 17 21 23 25 27 28 29 30 32 33 34 34 34 34 34 36 37 38 38 38 38 38 39 40 40 41 42 43 43 44 43 42 41 39 38 37 36 35 34 32 30 29 29 28 27 25 23 22 21 19 18 16 14 13 11 11 11 10 10 10
8 8 8 9 6 4 3 3 1 2 2 3 3 6 12 6 5 8 9 8 9 10 9 9 9 8 6 5 6 6 6 6 7 7 7 7 10 15 19 22 24 25 27 28 29 31 32 33 34 34 34 35 36 37 38 38 39 39 39 39 40 41 41 42 42 43 43 43 42 41 39 38 38 37 35 33 32 31 30 29 28 26 24 23 22 21 20 18 17 15 14 13 13 13 13 12 12
Wind_Direction
352 350 351 3 350 325 13 49 87 335 71 83 315 84 240 242 162 165 186 284 302 304 237 107 83 103 87 141 159 172 157 152 164 126 203 225 85 99 146 168 165 157 165 170 169 158 148 146 141 137 138 133 126 123 121 118 112 111 114 115 112 110 106 100 98 96 98 100 101 97 92 89 85 82 79 79 81 82 80 71 64 61 58 54 51 48 44 43 48 56 61 65 71 79 85 82 79
352 355 3 20 9 15 261 64 94 335 53 85 263 156 253 305 51 184 192 218 190 181 136 106 90 76 45 80 108 97 79 169 173 159 237 276 84 102 115 171 171 160 169 175 169 163 157 152 147 141 137 132 128 128 124 119 114 115 118 117 114 109 105 102 100 97 99 103 103 99 94 90 86 83 79 78 78 77 76 68 62 59 54 52 49 47 44 42 48 56 59 63 68 74 81 80 78
355 1 10 45 22 39 74 45 86 62 74 146 263 241 263 38 217 212 209 199 167 159 142 99 83 68 34 35 42 65 10 333 124 168 283 333 100 104 90 138 152 159 169 174 173 169 163 153 150 142 136 132 126 126 125 123 119 119 121 119 118 113 107 105 104 101 103 107 107 102 96 92 88 83 80 78 76 75 73 63 59 57 53 51 49 47 45 44 49 56 60 63 66 70 74 76 78
2 14 359 121 49 34 59 41 125 116 108 191 251 259 222 178 208 216 226 201 171 143 106 70 66 3 65 67 341 103 275 305 4 175 269 354 21 100 102 123 139 156 167 174 176 171 168 157 152 142 137 135 128 130 129 129 129 127 126 125 124 120 114 108 111 110 108 112 114 108 101 97 93 87 83 81 78 76 70 60 58 58 54 53 51 50 48 48 52 57 63 66 68 69 70 73 77
20 34 24 131 89 45 90 71 110 101 175 184 171 256 237 197 195 206 244 236 220 196 187 105 90 304 69 104 243 158 264 290 318 316 285 337 357 161 131 139 145 150 166 175 175 174 172 165 155 145 145 142 136 139 136 135 138 136 130 130 130 124 117 112 116 115 111 114 117 114 109 102 97 92 86 83 82 79 70 61 60 59 55 55 53 52 51 53 55 58 64 67 68 69 70 72 75
70 61 53 90 82 118 121 97 120 149 217 167 146 247 235 199 193 194 238 301 259 190 184 104 130 162 60 317 205 195 256 310 314 319 312 325 171 194 150 159 162 155 166 173 175 174 173 176 164 153 153 148 145 144 139 138 141 142 135 129 130 126 116 111 112 112 110 109 111 114 113 108 101 95 88 86 85 83 73 64 62 59 56 57 55 54 54 56 58 61 65 68 69 69 70 73 76
125 100 43 73 49 37 102 126 167 201 205 164 166 236 224 201 190 163 199 330 94 153 150 319 130 122 91 294 234 267 303 308 298 314 322 320 172 201 166 166 180 173 170 174 178 174 178 189 172 162 161 154 152 148 144 140 141 146 142 135 133 130 121 113 110 110 109 104 104 109 114 114 106 98 91 90 89 84 74 65 63 59 57 58 57 58 58 58 60 63 67 70 71 69 71 74 76
88 133 21 83 40 26 86 105 182 191 166 230 226 234 224 200 170 144 207 179 155 233 99 199 91 101 178 68 175 265 326 309 294 304 315 299 185 195 177 174 192 192 179 181 182 177 185 196 187 177 166 161 160 153 152 147 145 150 146 142 140 139 132 126 122 117 114 110 106 106 113 117 110 104 99 97 94 86 75 67 64 60 59 60 59 61 63 62 63 66 69 73 74 74 76 75 75
60 49 62 79 78 36 52 39 260 227 271 276 260 244 236 183 151 136 207 165 154 171 152 223 189 103 199 94 252 274 312 282 282 290 313 270 194 186 186 183 194 200 187 190 186 180 189 197 199 194 170 165 166 162 162 155 153 156 151 147 148 148 143 140 136 130 126 122 113 108 114 118 113 109 106 104 100 91 79 70 67 63 60 63 61 62 67 67 67 69 71 73 75 76 75 74 75
39 30 127 76 81 50 26 333 264 251 257 268 264 244 222 163 146 149 183 142 142 145 190 241 76 92 150 141 250 282 186 218 212 193 283 241 196 185 187 188 191 193 190 195 191 184 193 200 200 199 184 177 173 171 169 163 161 163 159 153 154 156 153 152 146 143 137 130 120 112 115 119 117 115 114 110 105 96 85 76 71 68 65 66 64 63 69 72 71 71 71 72 74 74 73 72 74
32 0 97 77 75 99 182 208 260 264 274 301 291 249 204 158 134 118 109 120 114 111 182 291 101 137 114 208 252 192 170 188 189 172 164 175 194 192 187 186 182 182 191 197 198 194 195 200 204 199 189 187 181 179 177 169 168 166 165 162 162 163 161 160 154 153 148 138 128 117 116 119 120 120 120 117 111 103 93 85 77 72 70 70 68 67 71 74 74 73 72 72 72 72 72 72 71
82 346 63 85 124 178 193 169 237 276 312 326 281 271 170 138 130 184 161 146 136 89 201 220 182 143 93 298 258 202 182 181 188 170 162 165 195 203 189 183 183 188 192 194 203 202 200 202 210 205 190 192 194 198 188 170 173 170 168 171 169 170 169 168 163 162 158 147 138 128 125 124 126 124 123 123 120 113 101 92 85 76 73 75 72 72 75 76 75 74 73 73 72 71 72 71 70
113 131 88 97 150 151 151 144 232 308 326 278 213 289 122 134 195 199 160 132 127 125 223 232 201 118 113 254 277 268 203 182 185 174 165 167 186 197 190 185 187 193 189 195 210 206 206 206 209 208 195 198 202 211 196 170 178 177 175 177 172 177 176 175 172 169 168 157 149 145 140 135 134 128 126 129 127 119 108 101 92 80 76 79 77 77 79 78 76 75 74 72 73 73 72 71 68
128 146 105 111 91 113 146 132 228 172 249 256 228 267 135 162 213 179 140 131 196 172 232 255 172 133 150 249 291 268 200 179 181 177 169 172 179 181 188 190 182 185 190 198 201 198 203 204 206 204 196 202 203 207 199 185 185 183 185 184 179 184 182 181 179 177 176 169 165 161 155 148 143 135 131 134 134 126 117 111 98 84 79 82 83 82 81 79 76 74 73 72 73 74 74 71 69
125 130 87 106 71 90 166 160 163 157 228 232 189 169 122 303 151 142 150 154 217 215 320 322 133 165 184 179 237 253 181 174 178 175 171 176 177 172 182 186 175 178 188 192 182 185 191 187 190 188 187 196 201 200 203 203 192 187 194 195 190 189 188 188 185 184 184 183 182 175 169 162 156 148 143 141 140 137 133 123 108 93 85 86 90 88 84 81 78 75 74 73 73 74 74 72 71
115 113 68 91 126 167 181 168 126 127 245 223 237 128 108 304 140 142 221 145 163 307 20 205 44 46 182 177 239 247 162 169 176 173 175 176 178 179 182 180 176 179 185 188 180 182 186 184 185 184 187 190 197 201 206 211 201 193 197 199 200 197 196 196 191 190 191 194 194 188 184 177 172 166 156 152 151 148 142 132 120 106 93 93 98 95 91 85 81 78 76 75 73 74 74 74 73
65 79 69 91 156 191 186 171 167 165 237 240 273 222 129 270 297 173 275 79 117 354 359 246 293 256 196 210 245 149 155 166 171 169 173 173 177 185 191 191 185 187 195 207 205 197 196 199 207 206 207 208 213 214 206 207 206 198 196 200 205 204 202 203 199 195 197 200 198 195 193 189 182 175 168 164 162 158 150 144 137 123 103 99 105 103 96 89 83 79 77 76 76 75 75 75 75
56 79 96 145 176 196 187 177 192 172 198 219 226 185 141 171 213 171 37 34 43 1 329 314 315 285 226 241 164 158 159 165 169 168 169 170 177 182 190 201 201 201 206 219 225 222 221 224 225 217 220 220 220 214 196 198 208 204 198 199 202 204 205 207 206 201 205 206 200 197 195 194 188 183 178 173 170 167 165 162 152 139 118 105 112 111 101 92 86 80 77 76 78 79 77 76 77
86 109 97 197 195 201 196 176 188 165 134 187 195 159 155 181 166 136 196 331 10 12 283 339 330 287 236 207 164 167 166 166 172 173 170 171 178 182 185 194 201 207 211 219 225 227 230 234 225 210 214 212 209 206 190 192 206 210 199 195 198 202 206 209 209 206 211 212 202 198 194 191 189 189 187 179 177 176 181 180 163 147 132 124 127 119 106 97 91 83 77 76 80 80 77 78 79
133 107 92 232 211 223 219 180 195 202 147 151 175 171 179 215 162 155 181 167 358 220 233 254 271 251 217 207 165 163 170 171 176 178 177 177 181 185 188 191 196 203 209 217 223 227 229 230 223 214 214 209 209 212 199 195 204 209 192 189 195 197 203 206 205 207 214 213 200 195 194 192 192 193 195 191 186 187 189 190 173 157 149 148 142 129 116 105 99 89 79 78 84 80 76 79 80
113 104 154 221 184 209 223 192 206 205 160 146 154 129 172 240 167 149 147 143 272 245 227 209 222 223 198 204 182 167 174 175 180 183 182 183 185 187 190 193 197 200 207 214 220 225 226 226 225 223 223 219 218 219 208 201 210 212 191 193 205 201 204 203 203 208 213 205 192 195 197 196 197 195 201 200 198 197 189 189 185 168 161 158 149 140 130 120 114 105 91 88 91 83 79 82 80
68 65 184 194 146 118 222 192 186 159 127 115 129 149 178 176 139 154 154 182 239 229 229 220 219 206 185 187 178 171 177 180 184 188 188 188 189 191 193 195 199 204 209 214 217 221 222 222 223 224 226 222 222 226 222 214 214 216 206 206 214 214 210 206 207 208 208 203 193 199 202 198 195 193 202 206 210 211 188 181 186 181 173 162 155 152 143 136 132 126 117 111 106 95 88 86 82
91 357 248 207 185 187 223 165 169 134 119 143 162 180 142 120 256 190 171 216 226 218 246 240 242 216 178 166 164 172 180 187 191 193 193 192 194 195 199 203 206 212 217 223 224 225 227 224 220 221 223 219 216 223 227 223 216 219 219 208 205 212 212 206 209 214 211 199 191 198 205 201 198 197 203 205 212 216 190 177 182 190 185 167 160 162 156 155 156 148 137 128 119 106 96 88 84
90 113 291 207 191 219 281 89 145 132 141 190 177 125 138 172 217 85 208 239 239 262 278 242 231 185 162 155 165 181 185 192 196 198 199 198 201 203 206 210 215 222 228 235 236 235 234 228 222 218 218 216 212 216 222 222 217 213 211 210 211 210 211 208 202 203 197 191 196 204 208 208 204 202 200 199 197 193 182 177 181 189 186 171 164 170 171 173 166 155 143 134 126 114 101 88 87
67 141 240 171 206 261 309 74 100 119 188 201 120 149 223 199 186 130 241 248 258 345 36 97 125 136 152 165 174 181 183 194 198 198 202 203 204 205 209 214 219 228 237 244 246 242 238 234 224 216 215 212 211 214 214 213 211 199 197 213 219 199 194 197 188 183 184 196 209 197 201 216 208 203 198 194 187 177 174 176 178 181 180 174 172 176 179 177 160 149 144 137 131 119 104 92 94
136 141 209 67 333 319 341 88 72 45 274 92 142 239 287 274 234 266 254 243 192 108 78 93 122 138 166 176 181 184 184 194 195 195 201 201 201 204 209 214 222 232 241 247 250 243 240 242 229 215 209 206 206 209 211 208 205 201 202 211 203 185 187 199 198 192 187 194 198 184 197 212 203 203 196 187 183 176 170 167 167 166 168 173 181 182 175 171 156 147 146 139 134 122 107 100 105
139 109 114 84 337 321 26 47 357 13 281 178 194 245 290 331 315 256 269 212 151 108 93 123 145 167 187 185 196 196 196 198 194 192 194 197 201 205 208 214 223 233 239 245 250 243 241 250 236 211 199 200 203 204 207 202 199 207 211 205 193 188 198 210 211 208 196 188 194 191 196 196 192 194 189 183 180 173 167 164 162 160 160 168 181 178 163 159 152 143 140 134 129 118 110 110 114
92 104 130 347 343 319 58 328 300 1 247 184 172 242 297 357 267 236 270 139 157 130 148 188 178 195 202 200 213 206 212 208 198 195 196 200 204 206 209 216 224 230 232 239 246 233 228 236 223 199 189 195 199 200 203 201 203 200 197 207 207 191 192 199 199 197 195 190 195 207 195 188 187 187 183 179 177 173 172 169 164 160 162 164 167 164 151 148 144 135 130 126 122 116 111 114 117
53 76 84 316 357 348 288 297 273 172 201 181 147 291 286 238 227 245 345 135 123 135 181 211 207 219 224 222 231 222 225 214 206 209 208 209 210 210 213 218 226 228 222 222 229 212 210 209 200 189 185 193 195 196 199 198 202 189 183 205 205 183 178 181 180 181 186 182 186 201 192 185 187 186 181 176 175 175 169 163 161 158 158 156 153 151 145 142 139 131 125 122 121 118 114 118 121
321 43 64 323 1 338 292 26 41 161 177 175 144 278 268 242 244 263 57 151 127 164 214 224 224 236 239 236 240 237 234 221 216 218 217 215 215 215 216 220 227 225 209 202 208 206 207 199 193 189 186 192 189 189 192 188 194 190 181 194 186 169 166 169 167 170 177 180 188 189 179 175 180 182 178 173 170 167 160 156 156 154 153 149 145 145 140 137 135 130 129 127 127 126 123 125 125
6 15 38 10 10 285 294 349 134 153 174 79 124 249 269 265 266 280 234 173 159 204 228 227 232 242 239 242 240 241 238 228 227 225 222 218 216 217 216 219 223 215 199 200 205 203 205 194 190 192 187 189 186 184 190 190 193 194 182 184 187 175 170 171 167 168 179 184 183 175 171 174 175 171 170 169 164 161 158 154 150 147 146 141 138 136 133 133 136 134 137 137 132 131 130 127 124
35 334 312 349 164 271 304 297 165 155 357 47 120 235 276 274 275 301 259 186 184 219 237 235 237 239 235 240 235 241 248 239 238 233 227 220 216 217 214 216 216 205 195 200 205 200 200 194 189 192 187 186 183 178 185 188 184 184 180 184 198 192 177 170 164 171 183 176 173 173 174 175 172 167 166 166 162 161 158 151 146 143 142 139 140 144 147 151 152 142 139 142 135 131 129 124 121
0 64 245 272 179 279 313 316 227 230 62 24 191 235 283 281 282 327 22 179 196 236 253 245 237 238 233 235 234 237 244 245 242 234 229 221 216 215 212 215 213 200 195 199 206 200 197 195 187 188 189 185 181 174 177 182 178 179 181 180 186 181 171 165 162 174 179 168 169 176 172 168 167 165 164 165 164 162 161 153 145 143 147 153 156 157 158 156 154 144 136 137 136 131 128 123 119
318 21 231 242 200 212 294 314 299 35 88 219 232 235 260 267 275 312 217 182 189 228 247 244 239 239 235 234 237 236 232 235 235 228 224 218 215 212 210 214 207 196 197 202 208 203 197 195 185 184 189 184 184 180 175 180 178 174 173 172 175 174 168 164 162 170 173 168 172 176 172 166 164 163 162 166 166 162 159 152 145 147 153 154 151 150 150 148 149 145 136 133 133 132 129 125 121
193 187 192 249 240 217 255 282 250 114 76 230 221 247 259 268 274 266 223 183 190 226 242 249 248 243 239 236 237 236 230 234 231 221 217 214 210 208 207 208 200 196 201 204 209 206 197 193 187 184 187 182 182 182 173 174 172 167 165 166 170 167 163 162 162 167 169 170 175 176 173 167 165 164 163 166 164 158 153 147 145 147 149 146 144 142 143 144 144 141 136 133 132 130 128 126 123
158 173 154 182 226 252 235 250 257 198 146 240 226 236 254 264 272 269 238 179 203 241 255 260 256 244 237 236 239 235 231 236 230 215 212 210 206 204 206 204 198 199 203 205 207 204 196 190 188 184 184 182 180 177 170 169 168 164 160 160 164 163 162 164 166 169 168 169 176 176 172 167 166 165 166 166 161 156 151 147 146 145 145 145 142 138 138 141 141 138 136 135 132 128 126 126 126
121 130 135 188 209 265 251 247 283 237 167 250 234 234 258 261 266 270 250 158 218 249 254 256 251 241 235 233 237 233 233 237 215 207 209 206 204 202 205 202 199 203 205 207 205 200 196 193 191 186 184 183 180 176 175 175 173 166 159 159 163 163 164 165 166 168 166 168 176 176 171 166 167 168 168 165 159 155 150 147 146 144 144 142 136 135 136 138 140 138 136 135 134 131 127 127 128
93 130 175 250 214 251 253 230 297 300 176 265 271 250 262 261 263 271 264 187 231 237 238 248 246 241 236 234 239 234 231 224 184 199 202 200 201 198 200 201 201 205 203 204 203 198 196 195 193 189 188 187 183 182 182 179 176 172 167 166 167 163 161 162 164 167 167 171 175 173 169 166 171 172 167 163 159 155 151 149 147 144 144 140 133 133 135 137 139 141 139 136 136 135 132 133 134
95 118 155 259 246 273 281 282 329 357 185 269 309 276 265 265 263 265 255 239 241 236 232 243 245 244 241 235 239 234 224 212 191 196 196 197 198 194 197 200 203 205 201 201 202 198 195 193 193 191 190 191 186 182 180 176 176 178 177 173 170 166 163 163 166 169 172 175 176 173 171 173 176 172 165 162 159 155 152 150 147 145 144 140 135 134 137 140 141 144 146 143 141 138 136 141 145
156 146 164 237 247 274 281 294 327 215 194 278 300 286 272 267 266 258 249 245 255 255 246 249 247 243 245 241 235 227 222 216 202 199 195 196 197 194 195 198 200 201 200 199 198 196 194 192 193 190 187 189 187 182 179 179 180 180 176 171 169 166 163 165 166 168 172 176 176 174 172 172 172 168 163 161 158 154 153 150 148 146 142 140 137 136 138 142 146 150 152 152 149 142 140 148 158
236 196 195 215 223 218 232 288 326 323 354 8 326 301 278 259 262 259 267 294 280 262 256 260 253 241 246 254 245 227 220 213 203 199 194 193 196 195 194 195 197 199 200 199 196 194 192 191 192 189 185 187 188 185 183 184 182 177 169 162 158 156 155 160 162 162 167 172 173 171 169 168 168 165 162 160 157 154 152 150 148 145 141 140 139 138 140 144 149 153 154 156 156 152 148 143 141
275 231 204 212 219 225 244 355 10 351 332 342 19 309 282 284 270 260 286 323 277 257 252 255 257 251 243 248 247 232 222 215 204 198 193 193 195 194 193 193 195 199 201 199 196 195 193 192 192 190 188 188 190 191 189 188 185 180 172 164 157 152 151 157 163 164 166 169 170 168 167 166 166 164 160 158 156 154 151 149 146 143 141 143 144 142 142 144 147 148 152 155 155 154 150 136 125
272 251 204 209 207 212 242 118 62 292 265 291 54 241 277 305 281 264 266 268 264 263 260 258 262 261 242 239 245 233 220 214 205 198 191 190 191 190 192 195 196 198 199 197 196 196 194 194 194 192 192 192 194 196 194 189 184 181 178 175 171 165 161 162 166 167 166 169 169 168 166 165 164 162 159 158 156 154 151 147 145 145 145 146 147 145 143 143 143 141 145 147 144 147 149 137 127
238 251 165 171 176 196 207 161 181 235 268 304 43 142 273 286 271 276 277 258 272 275 268 265 260 259 254 245 243 232 220 207 198 197 190 189 191 191 194 195 196 197 195 195 195 194 194 195 195 194 194 195 197 198 196 192 186 181 177 174 172 171 171 169 168 167 165 167 168 166 164 163 161 160 159 158 155 153 150 148 149 150 149 147 146 145 142 142 140 139 139 138 137 140 147 141 136
245 205 122 134 151 166 141 130 179 331 351 294 241 136 262 270 262 301 323 255 271 274 265 263 258 257 259 253 247 236 222 205 195 195 191 192 194 196 196 194 193 194 193 194 195 193 194 195 195 195 195 196 196 196 195 192 188 182 177 173 168 168 172 169 168 168 166 165 165 163 162 161 160 160 159 157 154 153 152 152 153 153 150 147 146 144 141 140 139 138 137 136 135 135 138 137 136
203 128 96 80 80 81 85 113 128 59 320 252 206 154 224 272 240 212 286 249 248 259 264 265 263 262 257 257 261 245 214 200 198 196 194 196 197 197 195 190 190 192 193 195 196 193 193 195 195 194 196 197 195 195 194 190 186 182 178 176 171 169 169 166 166 167 166 164 163 161 161 162 162 161 159 158 156 155 156 156 155 153 150 149 148 146 143 142 140 137 135 134 134 131 130 130 128
139 109 72 53 40 42 54 56 86 79 275 255 205 179 189 269 258 195 227 229 214 233 260 271 282 291 270 261 267 243 207 197 197 193 190 190 193 193 190 189 189 191 192 194 195 194 193 194 195 195 197 198 195 194 193 189 185 184 183 181 180 177 172 169 166 166 166 166 164 163 163 164 163 162 160 159 159 159 158 158 156 155 153 152 151 148 146 144 141 138 135 132 130 126 126 126 123
108 91 82 73 355 9 24 355 50 152 256 280 258 181 178 235 256 235 251 256 233 226 246 263 276 285 277 271 268 241 204 193 186 182 179 173 178 185 187 189 188 188 190 192 193 194 193 194 194 194 196 197 196 193 191 189 187 187 187 186 187 186 181 176 172 170 170 169 167 166 165 165 164 164 163 162 162 162 161 159 159 157 156 154 152 150 148 147 143 139 136 133 130 127 126 127 126
83 102 108 100 333 349 345 299 140 221 254 274 323 122 200 239 251 256 260 260 248 233 235 247 254 262 266 273 268 238 200 189 182 180 181 176 178 183 186 187 187 187 189 191 192 192 193 194 194 194 194 196 196 193 190 190 191 192 191 190 190 191 187 183 180 176 174 173 171 169 168 168 167 166 166 165 164 164 163 162 161 160 158 156 154 152 151 149 145 141 137 135 133 131 131 133 132
155 149 141 137 148 187 260 267 270 266 269 271 248 213 251 265 259 243 244 248 246 241 241 235 236 248 256 268 266 233 209 197 192 190 187 189 190 187 188 188 187 188 190 190 192 192 192 193 194 194 195 195 195 195 193 193 194 193 192 193 194 192 189 186 185 181 178 176 175 174 172 171 170 169 168 167 166 165 165 165 164 162 159 158 156 155 153 150 146 142 139 138 136 136 137 138 140
186 158 139 162 167 170 216 226 226 258 283 294 282 231 202 212 250 236 236 257 271 260 255 248 250 251 248 266 268 236 221 208 201 204 199 199 194 189 190 190 189 190 190 190 191 193 193 194 195 195 195 195 195 196 196 195 195 194 193 195 197 196 192 189 187 184 180 179 178 176 175 174 173 171 169 168 168 167 168 167 166 164 161 160 159 157 155 151 148 144 141 141 140 140 142 144 145
216 123 119 196 193 164 197 210 181 191 306 297 246 226 216 210 269 268 244 268 283 266 271 279 268 264 262 269 258 229 219 213 207 211 207 202 195 193 193 192 192 191 190 191 192 193 194 194 196 197 198 198 196 196 197 196 195 195 196 198 198 196 192 189 187 184 182 182 180 179 177 176 175 173 171 171 170 170 170 169 168 166 164 163 162 159 156 153 151 148 143 143 143 143 148 151 150
163 140 182 218 177 138 137 259 72 71 281 271 209 242 288 313 281 272 248 258 268 269 282 268 257 274 308 280 255 216 209 214 214 214 208 201 195 195 196 194 193 192 191 193 194 195 196 196 195 196 198 198 197 196 197 197 197 197 198 200 199 196 193 191 188 185 184 183 182 181 180 179 177 176 174 173 172 173 173 173 171 169 168 166 164 161 158 155 153 150 146 147 150 152 156 158 156
131 182 205 176 96 105 116 219 351 40 251 271 250 246 283 299 274 292 262 251 256 255 255 249 259 284 287 269 253 196 209 218 219 217 208 204 198 196 196 196 197 196 194 194 195 197 198 198 197 196 196 197 196 196 196 198 200 200 199 199 199 198 196 194 190 187 185 184 184 183 182 181 180 179 177 176 175 175 176 177 175 173 171 168 165 162 160 158 157 155 152 154 160 162 166 167 166
134 187 185 126 140 203 123 159 208 204 243 278 290 277 264 214 231 254 209 228 238 243 242 243 260 262 252 262 255 190 217 224 218 215 205 200 197 195 195 197 198 199 198 197 196 197 197 199 199 198 199 199 199 199 198 199 202 202 202 201 200 199 197 194 191 189 187 186 186 186 185 184 182 181 180 178 177 178 179 181 180 177 173 169 166 164 163 164 165 164 162 164 167 170 177 180 178
68 119 143 120 164 181 167 160 169 181 227 269 308 314 269 215 202 199 215 225 218 226 239 231 243 245 243 255 243 206 219 221 213 210 205 197 195 196 196 197 198 198 199 198 196 197 197 198 199 200 201 201 200 201 200 201 202 202 202 201 200 200 198 195 193 190 189 189 189 189 187 186 185 184 183 181 180 181 183 185 185 182 176 171 169 167 168 171 171 171 170 170 174 177 188 196 195
149 166 178 192 157 108 168 179 130 143 166 206 297 298 270 237 185 190 213 225 207 201 218 228 237 241 234 229 224 217 215 218 217 206 202 197 192 195 197 198 199 198 199 199 197 198 197 198 199 199 200 200 199 200 201 202 202 201 201 200 200 200 199 197 195 193 192 192 192 191 189 188 187 186 185 184 183 183 186 189 188 185 180 175 174 173 174 176 176 174 174 176 183 188 197 206 206
181 186 192 193 177 148 181 233 221 121 145 182 177 274 270 247 180 197 207 216 212 198 201 226 242 238 229 230 226 217 208 212 213 203 198 193 187 190 193 195 197 197 198 199 198 198 198 198 199 199 200 201 200 200 201 202 201 201 202 202 201 201 200 198 196 195 194 194 193 192 191 190 190 189 188 186 185 186 189 191 191 188 184 181 182 181 180 181 180 179 180 185 192 197 204 208 209